Volver al catálogo

SL-8 DEB

ActivoLEO
NORAD 5052·DEBRIS·🇷🇺 Russia

Lanzado Mar 18, 1971 desde Plesetsk Cosmodrome

Loading…

Próximos Pases

TLE

Source: Space-Track
1 05052U 71020C   26224.63724332 -.00000063  00000-0  18488-4 0  9991
2 05052  65.8227 352.2006 0007187 238.2320 216.2463 13.73651325776960

Sigue SL-8 DEB en tiempo real con AllMySat

Download on the App Store